Weather History for Wheaton NDB, MN

Change the Weather History Date:

Tuesday, April 29, 2014

  Actual Average Record
Temperature  
Mean Temperature 45 °F -  
Max Temperature 53 °F 64 °F 87 °F (1952)
Min Temperature 37 °F 40 °F 20 °F (1958)
Degree Days  
Heating Degree Days 20    
Moisture  
Dew Point 37 °F    
Average Humidity 74    
Maximum Humidity 93    
Minimum Humidity 51    
Precipitation  
Precipitation 0.01 in - - ()
Sea Level Pressure  
Sea Level Pressure 29.86 in    
Wind  
Wind Speed 12 mph (North)    
Max Wind Speed 26 mph    
Max Gust Speed 37 mph    
Visibility 10 miles    
Events Rain    
Averages and records for this station are not official NWS values.
T = Trace of Precipitation, MM = Missing Value Source: NWS Daily Summary

Daily Weather History Graph

Daily Weather History Graph

Search for Another Location

Airport:

Trip Planner

Search our weather history database for the weather conditions in past years. The results will help you decide how hot, cold, wet, or windy it might be!

Date:

Astronomy

Apr. 29, 2014 Rise Set
Actual Time 6:16 AM CDT 8:31 PM CDT
Civil Twilight 5:44 AM CDT 9:03 PM CDT
Nautical Twilight 5:03 AM CDT 9:44 PM CDT
Astronomical Twilight 4:18 AM CDT 10:30 PM CDT
Moon 6:36 AM CDT (4/29) 9:13 PM CDT (4/29)
Length of Visible Light 15h 19m
Length of Day
14h 14m
New Moon, 0% of the Moon is Illuminated
Apr 29
New Moon
May 6
First Quarter
May 14
Full
May 21
Last Quarter
May 28
New

Hourly Weather History & Observations

Time (CDT) Temp. Windchill Dew Point Humidity Pressure Visibility Wind Dir Wind Speed Gust Speed Precip Events Conditions
12:15 AM 41.0 °F 35.8 °F 37.4 °F 87% 29.80 in 10.0 mi NE 8.1 mph 17.3 mph N/A   Light Drizzle
12:34 AM 41.0 °F 34.7 °F 37.4 °F 87% 29.80 in 10.0 mi NE 10.4 mph - N/A   Light Drizzle
12:55 AM 41.0 °F 35.8 °F 37.4 °F 87% 29.80 in 10.0 mi NNE 8.1 mph - N/A   Overcast
1:14 AM 41.0 °F 35.2 °F 37.4 °F 87% 29.81 in 10.0 mi NNE 9.2 mph - N/A   Overcast
1:34 AM 41.0 °F 35.8 °F 37.4 °F 87% 29.81 in 10.0 mi NNE 8.1 mph - N/A   Overcast
1:54 AM 41.0 °F 35.2 °F 37.4 °F 87% 29.81 in 10.0 mi NNE 9.2 mph - N/A   Overcast
2:15 AM 41.0 °F 34.7 °F 37.4 °F 87% 29.81 in 10.0 mi NNE 10.4 mph - N/A   Overcast
2:35 AM 41.0 °F 35.2 °F 37.4 °F 87% 29.81 in 10.0 mi NNE 9.2 mph 16.1 mph N/A   Overcast
2:54 AM 41.0 °F 35.2 °F 35.6 °F 81% 29.81 in 10.0 mi NE 9.2 mph - N/A   Overcast
3:15 AM 41.0 °F 35.8 °F 35.6 °F 81% 29.81 in 10.0 mi North 8.1 mph - N/A   Overcast
3:34 AM 41.0 °F 34.3 °F 37.4 °F 87% 29.82 in 10.0 mi North 11.5 mph - N/A   Overcast
3:55 AM 39.2 °F 33.0 °F 37.4 °F 93% 29.82 in 7.0 mi NNW 9.2 mph - N/A   Overcast
4:15 AM 39.2 °F 34.2 °F 37.4 °F 93% 29.82 in 10.0 mi NNW 6.9 mph - N/A   Overcast
4:35 AM 39.2 °F 33.0 °F 37.4 °F 93% 29.82 in 10.0 mi North 9.2 mph - N/A   Light Drizzle
4:55 AM 39.2 °F 32.5 °F 37.4 °F 93% 29.82 in 10.0 mi NNE 10.4 mph - N/A Rain Rain
5:14 AM 39.2 °F 33.0 °F 37.4 °F 93% 29.82 in 10.0 mi NNE 9.2 mph 16.1 mph N/A   Light Drizzle
5:34 AM 39.2 °F 33.6 °F 37.4 °F 93% 29.83 in 10.0 mi North 8.1 mph - N/A   Light Drizzle
5:54 AM 39.2 °F 33.0 °F 37.4 °F 93% 29.83 in 7.0 mi North 9.2 mph - N/A   Overcast
6:14 AM 39.2 °F 31.6 °F 37.4 °F 93% 29.84 in 4.0 mi North 12.7 mph - N/A Rain Rain
6:34 AM 39.2 °F 32.5 °F 37.4 °F 93% 29.84 in 5.0 mi NNE 10.4 mph 17.3 mph N/A   Overcast
6:55 AM 39.2 °F 33.6 °F 35.6 °F 87% 29.85 in 5.0 mi NNW 8.1 mph - 0.01 in   Overcast
7:14 AM 39.2 °F 32.0 °F 37.4 °F 93% 29.85 in 10.0 mi NE 11.5 mph 16.1 mph N/A Rain Light Rain
7:34 AM 39.2 °F 32.0 °F 35.6 °F 87% 29.85 in 10.0 mi North 11.5 mph - N/A   Light Drizzle
7:55 AM 39.2 °F 30.8 °F 37.4 °F 93% 29.86 in 5.0 mi NNW 15.0 mph 21.9 mph N/A Rain Light Rain
8:15 AM 37.4 °F 30.8 °F 35.6 °F 93% 29.85 in 10.0 mi North 9.2 mph - N/A Rain Light Rain
8:35 AM 39.2 °F 31.2 °F 37.4 °F 93% 29.85 in 10.0 mi NNW 13.8 mph - N/A   Overcast
8:54 AM 39.2 °F 30.5 °F 37.4 °F 93% 29.86 in 10.0 mi NNW 16.1 mph 24.2 mph N/A   Overcast
9:14 AM 39.2 °F 31.2 °F 37.4 °F 93% 29.86 in 10.0 mi NNW 13.8 mph - N/A   Overcast
9:34 AM 41.0 °F 32.8 °F 35.6 °F 81% 29.86 in 10.0 mi NNW 16.1 mph 23.0 mph N/A   Overcast
9:54 AM 42.8 °F 36.2 °F 35.6 °F 76% 29.86 in 10.0 mi North 12.7 mph 18.4 mph N/A   Overcast
10:14 AM 44.6 °F 37.4 °F 35.6 °F 71% 29.86 in 10.0 mi North 16.1 mph 21.9 mph N/A   Mostly Cloudy
10:35 AM 46.4 °F 39.8 °F 35.6 °F 66% 29.86 in 10.0 mi North 16.1 mph 26.5 mph N/A   Scattered Clouds
10:55 AM 46.4 °F 39.2 °F 35.6 °F 66% 29.86 in 10.0 mi North 18.4 mph 31.1 mph N/A   Clear
11:14 AM 46.4 °F 38.7 °F 35.6 °F 66% 29.86 in 10.0 mi North 20.7 mph 28.8 mph N/A   Clear
11:35 AM 48.2 °F - 35.6 °F 62% 29.86 in 10.0 mi North 24.2 mph 27.6 mph N/A   Clear
11:54 AM 50.0 °F - 37.4 °F 62% 29.86 in 10.0 mi North 20.7 mph 28.8 mph N/A   Clear
12:14 PM 51.8 °F - 39.2 °F 62% 29.86 in 10.0 mi North 23.0 mph 28.8 mph N/A   Clear
12:35 PM 51.8 °F - 39.2 °F 62% 29.85 in 10.0 mi North 24.2 mph 33.4 mph N/A   Clear
12:54 PM 51.8 °F - 39.2 °F 62% 29.85 in 10.0 mi NNW 23.0 mph 35.7 mph N/A   Clear
1:14 PM 51.8 °F - 39.2 °F 62% 29.84 in 10.0 mi NNW 24.2 mph 32.2 mph N/A   Clear
1:35 PM 51.8 °F - 41.0 °F 67% 29.84 in 10.0 mi NNW 23.0 mph 33.4 mph N/A   Clear
1:54 PM 51.8 °F - 39.2 °F 62% 29.84 in 10.0 mi NNW 26.5 mph 36.8 mph N/A   Clear
2:14 PM 51.8 °F - 39.2 °F 62% 29.85 in 10.0 mi North 25.3 mph 32.2 mph N/A   Clear
2:34 PM 51.8 °F - 39.2 °F 62% 29.85 in 10.0 mi North 25.3 mph 33.4 mph N/A   Clear
2:54 PM 51.8 °F - 39.2 °F 62% 29.85 in 10.0 mi North 24.2 mph 32.2 mph N/A   Clear
3:15 PM 53.6 °F - 39.2 °F 58% 29.86 in 10.0 mi North 18.4 mph 29.9 mph N/A   Clear
3:34 PM 53.6 °F - 37.4 °F 54% 29.86 in 10.0 mi North 16.1 mph 32.2 mph N/A   Scattered Clouds
4:14 PM 53.6 °F - 37.4 °F 54% 29.86 in 10.0 mi North 17.3 mph 25.3 mph N/A   Mostly Cloudy
4:34 PM 53.6 °F - 35.6 °F 51% 29.87 in 10.0 mi North 15.0 mph 25.3 mph N/A   Scattered Clouds
4:54 PM 51.8 °F - 37.4 °F 58% 29.88 in 10.0 mi NNE 19.6 mph 25.3 mph N/A   Scattered Clouds
5:14 PM 50.0 °F - 37.4 °F 62% 29.89 in 10.0 mi North 16.1 mph 24.2 mph N/A Rain Light Rain
5:34 PM 51.8 °F - 37.4 °F 58% 29.90 in 10.0 mi North 15.0 mph 20.7 mph N/A   Scattered Clouds
5:54 PM 51.8 °F - 37.4 °F 58% 29.90 in 10.0 mi North 13.8 mph - N/A   Scattered Clouds
6:15 PM 51.8 °F - 35.6 °F 54% 29.91 in 10.0 mi North 16.1 mph 19.6 mph N/A   Clear
6:35 PM 51.8 °F - 37.4 °F 58% 29.91 in 10.0 mi North 10.4 mph - N/A   Scattered Clouds
6:55 PM 51.8 °F - 37.4 °F 58% 29.91 in 10.0 mi North 10.4 mph - N/A   Scattered Clouds
7:15 PM 51.8 °F - 41.0 °F 67% 29.91 in 10.0 mi North 8.1 mph - N/A Rain Light Rain
7:34 PM 50.0 °F - 39.2 °F 66% 29.92 in 10.0 mi North 12.7 mph 17.3 mph N/A   Light Drizzle
7:55 PM 50.0 °F - 39.2 °F 66% 29.92 in 10.0 mi NNW 13.8 mph 19.6 mph N/A   Scattered Clouds
8:15 PM 48.2 °F - 37.4 °F 66% 29.92 in 10.0 mi North 15.0 mph - N/A   Mostly Cloudy
8:35 PM 48.2 °F - 37.4 °F 66% 29.93 in 10.0 mi North 15.0 mph 20.7 mph N/A   Overcast
8:55 PM 48.2 °F - 37.4 °F 66% 29.93 in 10.0 mi North 11.5 mph - N/A   Overcast
9:15 PM 48.2 °F - 37.4 °F 66% 29.93 in 10.0 mi NNW 9.2 mph - N/A   Overcast
9:35 PM 48.2 °F - 37.4 °F 66% 29.93 in 10.0 mi NNW 12.7 mph 19.6 mph N/A   Overcast
9:55 PM 48.2 °F - 37.4 °F 66% 29.93 in 10.0 mi NNW 11.5 mph - N/A   Overcast
10:14 PM 46.4 °F 40.1 °F 37.4 °F 71% 29.93 in 10.0 mi NNW 15.0 mph 18.4 mph N/A   Overcast
10:34 PM 46.4 °F 41.5 °F 37.4 °F 71% 29.93 in 10.0 mi NNW 10.4 mph - N/A   Overcast
10:54 PM 46.4 °F 40.7 °F 37.4 °F 71% 29.92 in 10.0 mi North 12.7 mph 18.4 mph N/A   Overcast
11:14 PM 46.4 °F 40.4 °F 37.4 °F 71% 29.92 in 10.0 mi NNW 13.8 mph 19.6 mph N/A   Scattered Clouds
11:35 PM 44.6 °F 38.8 °F 35.6 °F 71% 29.91 in 10.0 mi NNW 11.5 mph - N/A   Clear
11:55 PM 44.6 °F 38.1 °F 35.6 °F 71% 29.91 in 10.0 mi NNW 13.8 mph - N/A   Scattered Clouds